Clarksville, TN

8:15 AM CDT on September 26, 2017 (GMT -0500)
Outlaw

Weather History for KCKV - December, 2014

Change the Weather History Date:

Wednesday, December 24, 2014

  Actual Average Record
Temperature  
Mean Temperature 45 °F 37 °F  
Max Temperature 50 °F 46 °F 73 °F (1955)
Min Temperature 40 °F 28 °F -7 °F (1983)
Degree Days  
Heating Degree Days 20    
Month to date heating degree days 546  
Since 1 July heating degree days 1437  
Cooling Degree Days 0    
Month to date cooling degree days 0  
Year to date cooling degree days  
Moisture  
Dew Point 42 °F    
Average Humidity 88    
Maximum Humidity 100    
Minimum Humidity 76    
Precipitation  
Precipitation 0.20 in 0.15 in 2.82 in (1988)
Month to date precipitation 3.11 4.11  
Year to date precipitation 49.26  
Sea Level Pressure  
Sea Level Pressure 29.68 in    
Wind  
Wind Speed 10 mph (WNW)    
Max Wind Speed 21 mph    
Max Gust Speed 27 mph    
Visibility 7 miles    
Events Fog , Rain    
T = Trace of Precipitation, MM = Missing Value Source: NWS Daily Summary

Daily Weather History Graph

Daily Weather History Graph

Search for Another Location

Airport or City:

Trip Planner

Search our weather history database for the weather conditions in past years. The results will help you decide how hot, cold, wet, or windy it might be!

Date:

Astronomy

Dec. 24, 2014 Rise Set
Actual Time 6:59 AM CST 4:39 PM CST
Civil Twilight 6:30 AM CST 5:08 PM CST
Nautical Twilight 5:58 AM CST 5:40 PM CST
Astronomical Twilight 5:26 AM CST 6:11 PM CST
Moon 8:54 AM CST (12/24) 7:58 PM CST (12/24)
Length of Visible Light 10h 37m
Length of Day
9h 39m
Waxing Crescent, 10% of the Moon is Illuminated
Dec 24
Waxing Crescent
Dec 28
First Quarter
Jan 4
Full
Jan 13
Last Quarter
Jan 20
New

Hourly Weather History & Observations

Time (CST) Temp. Windchill Dew Point Humidity Pressure Visibility Wind Dir Wind Speed Gust Speed Precip Events Conditions
12:52 AM 50.0 °F - 50.0 °F 100% 29.60 in 0.2 mi West 3.5 mph - N/A Fog Fog
1:52 AM 50.0 °F - 48.9 °F 96% 29.57 in 0.2 mi NNE 3.5 mph - N/A Fog Fog
2:52 AM 50.0 °F - 50.0 °F 100% 29.57 in 0.5 mi Calm Calm - N/A Fog Fog
3:39 AM 50.0 °F - 48.9 °F 96% 29.56 in 1.2 mi WNW 8.1 mph - 0.00 in Rain Light Rain
3:52 AM 48.9 °F - 48.0 °F 97% 29.56 in 2.0 mi WNW 8.1 mph - 0.01 in Rain Light Rain
4:13 AM 48.0 °F - 48.0 °F 100% 29.57 in 3.0 mi WNW 8.1 mph - 0.00 in   Overcast
4:36 AM 46.9 °F - 46.9 °F 100% 29.56 in 2.5 mi NW 6.9 mph - 0.01 in Rain Light Rain
4:47 AM 46.4 °F 42.4 °F 46.4 °F 100% 29.55 in 4.0 mi NNW 8.1 mph - 0.02 in Rain Light Rain
4:52 AM 46.9 °F - 46.9 °F 100% 29.55 in 5.0 mi NW 6.9 mph - 0.02 in   Overcast
5:09 AM 46.9 °F - 46.0 °F 97% 29.55 in 8.0 mi NNW 8.1 mph - N/A   Overcast
5:52 AM 46.9 °F - 46.0 °F 97% 29.57 in 6.0 mi NW 8.1 mph - 0.00 in   Overcast
6:06 AM 46.0 °F 41.9 °F 46.0 °F 100% 29.56 in 5.0 mi NW 8.1 mph - N/A   Overcast
6:20 AM 46.0 °F 40.2 °F 45.0 °F 96% 29.57 in 2.5 mi NW 12.7 mph - 0.01 in Rain Light Rain
6:29 AM 46.0 °F 41.0 °F 45.0 °F 96% 29.58 in 3.0 mi WNW 10.4 mph - 0.01 in Rain Light Rain
6:52 AM 46.0 °F 41.0 °F 44.1 °F 93% 29.58 in 2.5 mi NNW 10.4 mph - 0.02 in Rain Light Rain
6:59 AM 46.0 °F 41.0 °F 44.1 °F 93% 29.58 in 4.0 mi NW 10.4 mph - 0.01 in Rain Light Rain
7:14 AM 45.0 °F 39.3 °F 44.1 °F 97% 29.58 in 9.0 mi NW 11.5 mph - 0.01 in   Overcast
7:52 AM 45.0 °F 39.7 °F 43.0 °F 93% 29.60 in 3.0 mi WNW 10.4 mph - 0.01 in Rain Light Rain
8:35 AM 45.0 °F 38.5 °F 43.0 °F 93% 29.59 in 1.8 mi NW 13.8 mph - 0.04 in Rain Heavy Rain
8:50 AM 44.6 °F 39.2 °F 42.8 °F 93% 29.61 in 3.0 mi WNW 10.4 mph - 0.06 in Rain Light Rain
8:52 AM 45.0 °F 39.3 °F 43.0 °F 93% 29.61 in 3.0 mi NW 11.5 mph - 0.06 in Rain Light Rain
9:52 AM 45.0 °F 38.9 °F 43.0 °F 93% 29.63 in 5.0 mi WNW 12.7 mph - 0.02 in Rain Light Rain
10:52 AM 44.1 °F 36.2 °F 41.0 °F 89% 29.67 in 10.0 mi WNW 18.4 mph - 0.05 in Rain Light Rain
11:31 AM 44.1 °F 37.7 °F 42.1 °F 93% 29.65 in 10.0 mi WNW 12.7 mph - 0.00 in   Overcast
11:52 AM 45.0 °F 38.5 °F 42.1 °F 90% 29.66 in 10.0 mi West 13.8 mph - 0.00 in   Overcast
12:13 PM 45.0 °F 37.9 °F 41.0 °F 86% 29.65 in 10.0 mi West 16.1 mph 25.3 mph N/A   Overcast
12:29 PM 46.0 °F 40.6 °F 42.1 °F 86% 29.66 in 10.0 mi West 11.5 mph - N/A   Overcast
12:36 PM 46.0 °F 40.6 °F 42.1 °F 86% 29.66 in 10.0 mi West 11.5 mph - N/A   Overcast
12:44 PM 46.9 °F - 43.0 °F 86% 29.66 in 10.0 mi WNW 13.8 mph - N/A   Overcast
12:52 PM 46.0 °F 39.9 °F 41.0 °F 83% 29.65 in 10.0 mi WNW 13.8 mph - N/A   Overcast
1:32 PM 46.9 °F - 41.0 °F 80% 29.66 in 10.0 mi WNW 13.8 mph - N/A   Overcast
1:42 PM 46.9 °F - 39.0 °F 74% 29.66 in 10.0 mi WNW 11.5 mph - N/A   Overcast
1:52 PM 46.9 °F - 39.9 °F 77% 29.67 in 10.0 mi WNW 8.1 mph - N/A   Overcast
2:52 PM 46.9 °F - 39.0 °F 74% 29.70 in 10.0 mi West 13.8 mph 18.4 mph N/A   Mostly Cloudy
3:14 PM 46.0 °F 40.6 °F 37.9 °F 73% 29.71 in 10.0 mi West 11.5 mph - N/A   Overcast
3:52 PM 45.0 °F 37.9 °F 37.0 °F 74% 29.74 in 10.0 mi WSW 16.1 mph 21.9 mph N/A   Overcast
4:05 PM 45.0 °F 38.5 °F 37.0 °F 74% 29.74 in 10.0 mi West 13.8 mph - N/A   Overcast
4:52 PM 44.1 °F 38.6 °F 37.0 °F 76% 29.77 in 10.0 mi West 10.4 mph - 0.00 in Rain Light Rain
5:13 PM 43.0 °F 37.2 °F 39.0 °F 86% 29.77 in 10.0 mi West 10.4 mph - 0.01 in Rain Light Rain
5:52 PM 42.1 °F 34.9 °F 37.0 °F 82% 29.80 in 10.0 mi West 13.8 mph - 0.01 in Rain Light Rain
6:52 PM 41.0 °F 35.8 °F 37.0 °F 86% 29.83 in 10.0 mi West 8.1 mph - 0.00 in   Overcast
7:52 PM 41.0 °F 35.2 °F 37.0 °F 86% 29.86 in 10.0 mi West 9.2 mph - 0.00 in Rain Light Rain
8:09 PM 41.0 °F 35.2 °F 36.0 °F 82% 29.86 in 10.0 mi WSW 9.2 mph - 0.00 in   Overcast
8:33 PM 39.9 °F 35.1 °F 36.0 °F 86% 29.87 in 10.0 mi WSW 6.9 mph - 0.00 in   Overcast
8:52 PM 39.9 °F 35.1 °F 37.0 °F 89% 29.88 in 10.0 mi WSW 6.9 mph - 0.00 in   Overcast
9:27 PM 39.9 °F 34.5 °F 36.0 °F 86% 29.88 in 10.0 mi WSW 8.1 mph - N/A   Overcast
9:52 PM 41.0 °F 35.2 °F 36.0 °F 82% 29.90 in 10.0 mi WSW 9.2 mph - N/A   Overcast
10:52 PM 41.0 °F 34.7 °F 36.0 °F 82% 29.91 in 10.0 mi WSW 10.4 mph - N/A   Overcast
11:52 PM 39.9 °F 34.5 °F 36.0 °F 86% 29.93 in 10.0 mi WSW 8.1 mph - N/A   Overcast